[[{"header":{"parameterUnit":"m.s-1","parameterCategory":1,"la1":30.2991,"la2":30.254,"lo1":-89.0895,"lo2":-89.0444,"dy":0.0017,"dx":0.0017,"nx":28,"ny":28,"refTime":"2024-12-02T09:00:00:Z","depth":0,"parameterNumber":2,"parameterNumberName":"U-component_of_WINDS"},"data":[0,0,0,0,0,0,0,0,0,0,0,0,0,0,0,0,0,0,0,0,0,0,0,0,0,0,0,0,0,0,0,0,0,0,0,0,0,0,0,0,0,0,0,0,0,0,0,0,0,0,0,0,0,0,0,0,0,0,-2.5114,-2.5114,0,-2.5098,-2.5098,-2.5098,-2.5005,-2.5002,-2.5,-2.4998,-2.4983,-2.4985,-2.4986,0,0,0,0,0,0,0,0,0,0,0,0,0,-2.5066,-2.5067,-2.5114,-2.5114,-2.5114,-2.5098,-2.5098,-2.5098,-2.5005,-2.5002,-2.4999,-2.4997,-2.4982,-2.4984,-2.4987,0,0,0,0,0,0,0,0,0,0,0,0,0,-2.5072,-2.5068,-2.5114,-2.5066,-2.5061,-2.5098,-2.5098,-2.5098,-2.5005,-2.5002,-2.4999,-2.4996,-2.4982,-2.4984,-2.4987,-2.507,0,0,-2.4995,-2.4996,0,0,0,0,0,0,0,0,-2.5072,-2.5074,-2.5073,-2.5069,-2.5064,-2.505,-2.5075,-2.5089,-2.5006,-2.5027,-2.4998,-2.4994,-2.5008,-2.5008,-2.5013,-2.5069,-2.5069,-2.4995,-2.4996,-2.4997,-2.4998,0,0,0,0,0,0,0,-2.5072,-2.5074,-2.5108,-2.5073,-2.5068,-2.5045,-2.5042,-2.5078,-2.5037,-2.5025,-2.5018,-2.5017,-2.5005,-2.5011,-2.5012,-2.5069,-2.4995,-2.4997,-2.4999,-2.5,-2.5194,-2.5198,0,0,0,0,0,0,-2.5078,-2.5075,-2.5108,-2.5107,-2.506,-2.5049,-2.5045,-2.5058,-2.5036,-2.5029,-2.502,-2.5013,-2.5008,-2.5009,-2.5011,-2.5108,-2.4997,-2.5,-2.5001,-2.5191,-2.5195,-2.5199,0,0,0,0,0,0,-2.5077,-2.5082,-2.5109,-2.5089,-2.5091,-2.5053,-2.5068,-2.5059,-2.5065,-2.5032,-2.5025,-2.5033,-2.5005,-2.5007,-2.5056,-2.5107,-2.5001,-2.5003,-2.5186,-2.5192,-2.5197,-2.5304,0,0,0,0,0,0,-2.5076,-2.5082,-2.5113,-2.5091,-2.5092,-2.5155,-2.5071,-2.5061,-2.5069,-2.506,-2.5043,-2.5037,-2.5003,-2.5053,-2.5059,-2.5108,-2.5005,-2.5182,-2.5189,-2.5195,-2.5296,-2.5312,-2.5326,0,0,0,0,0,-2.5075,-2.5144,-2.5115,-2.512,-2.513,-2.5158,-2.5159,-2.5118,-2.5074,-2.5105,-2.5084,-2.5037,-2.51,-2.5059,-2.5065,-2.5116,-2.5178,-2.5187,-2.5195,-2.5289,-2.5309,-2.5326,0,0,0,0,0,0,-2.5174,-2.514,-2.5108,-2.5171,-2.5168,-2.5142,-2.518,-2.5141,-2.515,-2.5141,-2.509,-2.5087,-2.5144,-2.5134,-2.5089,-2.5196,-2.5131,-2.5141,-2.52,-2.5219,-2.5234,-2.5237,-2.5007,0,0,0,0,0,-2.5203,-2.5228,-2.5197,-2.5256,-2.5256,-2.5219,-2.5229,-2.5198,-2.5193,-2.5191,-2.5174,-2.5171,-2.519,-2.5204,-2.5219,-2.5293,-2.5289,-2.5331,-2.5346,-2.5359,-2.5369,-2.5408,-2.5427,-2.5226,-2.5226,-2.5226,0,0,-2.5263,-2.5248,-2.5267,-2.5275,-2.5269,-2.5297,-2.5218,-2.525,-2.5271,-2.5196,-2.5242,-2.5229,-2.5222,-2.5285,-2.5311,-2.5278,-2.5423,-2.5369,-2.538,-2.5382,-2.5419,-2.5438,-2.5455,-2.5231,-2.523,-2.523,0,0,-2.5389,-2.5379,-2.5428,-2.5423,-2.5415,-2.5389,-2.5401,-2.5381,-2.537,-2.5414,-2.5359,-2.5383,-2.5416,-2.5414,-2.5418,-2.5542,-2.55,-2.5549,-2.563,-2.5669,-2.5685,-2.5699,-2.5746,-2.5763,-2.5558,-2.5558,-2.5558,0,-2.5465,-2.5504,-2.5458,-2.5494,-2.55,-2.5433,-2.5483,-2.5481,-2.5478,-2.5484,-2.5447,-2.5488,-2.5479,-2.554,-2.5571,-2.5575,-2.5588,-2.5551,-2.5686,-2.57,-2.5712,-2.5756,-2.5773,-2.5564,-2.5564,-2.5563,-2.5562,0,-2.56,-2.5628,-2.5669,-2.5668,-2.5678,-2.5721,-2.5682,-2.5698,-2.5666,-2.5645,-2.5692,-2.5678,-2.569,-2.5702,-2.5671,-2.576,-2.574,-2.5695,-2.563,-2.5738,-2.5779,-2.5795,-2.5573,-2.5571,-2.5569,-2.5568,0,0,-2.5789,-2.5761,-2.5777,-2.5777,-2.5762,-2.5783,-2.5823,-2.5835,-2.5851,-2.5851,-2.5884,-2.5914,-2.5873,-2.5877,-2.5845,-2.5879,-2.5981,-2.583,-2.5829,-2.5861,-2.608,-2.6116,-2.6136,-2.5952,-2.5955,-2.5957,-2.6082,0,-2.591,-2.5977,-2.5937,-2.601,-2.6036,-2.5973,-2.6008,-2.6003,-2.5984,-2.6004,-2.5983,-2.6006,-2.5949,-2.5951,-2.5982,-2.5962,-2.6025,-2.5952,-2.5984,-2.5986,-2.599,-2.6157,-2.6194,-2.6312,-2.6097,-2.61,-2.6101,0,-2.6061,-2.6069,-2.6145,-2.6126,-2.6136,-2.6168,-2.6176,-2.6195,-2.6189,-2.6173,-2.6178,-2.6137,-2.6176,-2.611,-2.6163,-2.6115,-2.6125,-2.6118,-2.6121,-2.6125,-2.6052,-2.6167,-2.6349,-2.6368,-2.6125,-2.6123,-2.6122,0,-2.6194,-2.6222,-2.6272,-2.6273,-2.6252,-2.6277,-2.6269,-2.6259,-2.6269,-2.6276,-2.6282,-2.6293,-2.63,-2.6311,-2.6275,-2.6229,-2.6334,-2.6264,-2.6323,-2.6324,-2.635,-2.6349,-2.6539,-2.6353,-2.6353,-2.6352,-2.6352,0,-2.6336,-2.6385,-2.6331,-2.6362,-2.6416,-2.6369,-2.6424,-2.641,-2.6402,-2.6429,-2.6374,-2.6401,-2.6351,-2.6373,-2.6345,-2.6395,-2.6397,-2.6387,-2.6379,-2.6393,-2.6395,-2.6401,-2.6393,-2.6357,-2.6356,-2.6355,-2.6354,0,-2.6494,-2.6459,-2.651,-2.6486,-2.6481,-2.6522,-2.6501,-2.653,-2.6506,-2.6542,-2.6548,-2.6512,-2.6536,-2.65,-2.6519,-2.65,-2.657,-2.6549,-2.6573,-2.6567,-2.6629,-2.6625,-2.6831,-2.6857,-2.6653,-2.6655,-2.6656,0,-2.6588,-2.6625,-2.6604,-2.6619,-2.6614,-2.6638,-2.6648,-2.6602,-2.6615,-2.6611,-2.664,-2.6659,-2.6671,-2.6712,-2.6689,-2.6703,-2.6683,-2.6754,-2.6685,-2.6699,-2.6687,-2.6687,-2.6691,-2.677,-2.6772,-2.6774,-2.6776,0,-2.6759,-2.674,-2.6756,-2.6767,-2.678,-2.6786,-2.6789,-2.6804,-2.6756,-2.6773,-2.6796,-2.6806,-2.6826,-2.6846,-2.6854,-2.6847,-2.6805,-2.6797,-2.6812,-2.6828,-2.6842,-2.6837,-2.6614,-2.6793,-2.6792,-2.679,-2.6789,-2.6789,-2.6889,-2.6919,-2.691,-2.6931,-2.6927,-2.6931,-2.6956,-2.6936,-2.6955,-2.6967,-2.6939,-2.697,-2.6963,-2.697,-2.6968,-2.6991,-2.696,-2.6981,-2.6987,-2.6994,-2.7005,-2.6836,-2.6993,-2.6992,-2.6991,-2.6991,-2.6991,0,-2.7059,-2.705,-2.7069,-2.7074,-2.709,-2.7047,-2.7047,-2.7064,-2.7092,-2.7088,-2.7102,-2.7129,-2.7148,-2.7126,-2.7141,-2.7165,-2.7146,-2.7171,-2.717,-2.7169,-2.703,-2.7017,-2.7186,-2.7186,-2.7186,-2.7186,-2.7186,-2.7186,-2.715,-2.72,-2.718,-2.7228,-2.7218,-2.7247,-2.7251,-2.7255,-2.7252,-2.7285,-2.7301,-2.7285,-2.7275,-2.7289,-2.7305,-2.7298,-2.7307,-2.734,-2.7327,-2.7198,-2.7179,-2.7161,-2.7148,-2.7342,-2.7342,-2.7464,-2.7465,-2.7466]},{"header":{"parameterUnit":"m.s-1","parameterCategory":1,"la1":30.2991,"la2":30.254,"lo1":-89.0895,"lo2":-89.0444,"dy":0.0017,"dx":0.0017,"nx":28,"ny":28,"refTime":"2024-12-02T09:00:00:Z","depth":0,"parameterNumber":3,"parameterNumberName":"V-component_of_WINDS"},"data":[0,0,0,0,0,0,0,0,0,0,0,0,0,0,0,0,0,0,0,0,0,0,0,0,0,0,0,0,0,0,0,0,0,0,0,0,0,0,0,0,0,0,0,0,0,0,0,0,0,0,0,0,0,0,0,0,0,0,-3.053,-3.0531,0,-3.0551,-3.0551,-3.0551,-3.0513,-3.0512,-3.051,-3.0509,-3.0528,-3.0529,-3.0531,0,0,0,0,0,0,0,0,0,0,0,0,0,-3.0456,-3.0458,-3.053,-3.0531,-3.0531,-3.0551,-3.0551,-3.0551,-3.0513,-3.0512,-3.051,-3.0509,-3.0527,-3.0529,-3.0531,0,0,0,0,0,0,0,0,0,0,0,0,0,-3.0483,-3.0458,-3.053,-3.0514,-3.0513,-3.0551,-3.0551,-3.0551,-3.0513,-3.0512,-3.051,-3.0508,-3.0527,-3.0529,-3.0531,-3.0585,0,0,-3.0539,-3.054,0,0,0,0,0,0,0,0,-3.0482,-3.0486,-3.0516,-3.0515,-3.0514,-3.0527,-3.0531,-3.0562,-3.0514,-3.0513,-3.0509,-3.0507,-3.0529,-3.0531,-3.0539,-3.0586,-3.0586,-3.0539,-3.0541,-3.0542,-3.0543,0,0,0,0,0,0,0,-3.048,-3.0485,-3.0538,-3.0517,-3.0516,-3.0505,-3.0507,-3.0537,-3.0531,-3.0513,-3.051,-3.0514,-3.0528,-3.0537,-3.0539,-3.0587,-3.0539,-3.0541,-3.0543,-3.0544,-3.0678,-3.068,0,0,0,0,0,0,-3.0481,-3.0484,-3.0538,-3.0539,-3.0493,-3.0508,-3.051,-3.0525,-3.0531,-3.053,-3.0515,-3.0512,-3.0533,-3.0536,-3.054,-3.0603,-3.0542,-3.0544,-3.0546,-3.0676,-3.0679,-3.0681,0,0,0,0,0,0,-3.0479,-3.0486,-3.0537,-3.0511,-3.0516,-3.0511,-3.0528,-3.0526,-3.0535,-3.0533,-3.0531,-3.0525,-3.0532,-3.0536,-3.0574,-3.0603,-3.0545,-3.0548,-3.0674,-3.0677,-3.068,-3.073,0,0,0,0,0,0,-3.0477,-3.0485,-3.0506,-3.0511,-3.0518,-3.0572,-3.053,-3.0528,-3.054,-3.0536,-3.0542,-3.0541,-3.0531,-3.0571,-3.0577,-3.0606,-3.055,-3.0671,-3.0675,-3.0679,-3.0726,-3.0735,-3.0742,0,0,0,0,0,-3.0475,-3.0519,-3.0508,-3.0514,-3.0544,-3.0573,-3.0577,-3.0565,-3.0542,-3.0563,-3.0561,-3.0541,-3.0599,-3.0575,-3.0581,-3.0612,-3.0669,-3.0674,-3.0678,-3.0722,-3.0733,-3.0742,0,0,0,0,0,0,-3.0516,-3.0519,-3.0507,-3.0554,-3.0564,-3.0567,-3.0593,-3.0577,-3.0593,-3.0588,-3.0572,-3.0574,-3.0615,-3.0616,-3.059,-3.0663,-3.063,-3.0636,-3.0661,-3.0671,-3.0679,-3.0679,-3.0552,0,0,0,0,0,-3.0531,-3.0556,-3.0557,-3.0599,-3.0604,-3.0598,-3.061,-3.06,-3.0609,-3.0613,-3.0614,-3.0623,-3.0643,-3.0657,-3.0676,-3.0725,-3.0727,-3.0749,-3.0758,-3.0764,-3.077,-3.0797,-3.0808,-3.0696,-3.0696,-3.0696,0,0,-3.0562,-3.0567,-3.0583,-3.0607,-3.0614,-3.0639,-3.0601,-3.0629,-3.0648,-3.0617,-3.0654,-3.0654,-3.0663,-3.0708,-3.0727,-3.071,-3.0801,-3.077,-3.0775,-3.0778,-3.0803,-3.0814,-3.0823,-3.0699,-3.0699,-3.0698,0,0,-3.0632,-3.0637,-3.0674,-3.0681,-3.0691,-3.0687,-3.0695,-3.0701,-3.0701,-3.0737,-3.0715,-3.0735,-3.0771,-3.0778,-3.0787,-3.0859,-3.0841,-3.0865,-3.0908,-3.0935,-3.0943,-3.0951,-3.0978,-3.0988,-3.0871,-3.0871,-3.0871,0,-3.0669,-3.0707,-3.0694,-3.0724,-3.0735,-3.0709,-3.0745,-3.0752,-3.0768,-3.0776,-3.0757,-3.0801,-3.0805,-3.0851,-3.0869,-3.0876,-3.0886,-3.0865,-3.0943,-3.0951,-3.0958,-3.0983,-3.0993,-3.0874,-3.0874,-3.0873,-3.0873,0,-3.0752,-3.0779,-3.0806,-3.0824,-3.0838,-3.087,-3.0862,-3.0877,-3.0866,-3.0863,-3.0901,-3.0904,-3.0924,-3.0933,-3.0922,-3.0978,-3.0968,-3.0946,-3.0912,-3.0972,-3.0996,-3.1005,-3.0878,-3.0877,-3.0876,-3.0875,0,0,-3.085,-3.0859,-3.087,-3.0877,-3.0887,-3.0907,-3.0938,-3.0958,-3.0972,-3.0983,-3.1009,-3.104,-3.102,-3.103,-3.1019,-3.1042,-3.11,-3.1018,-3.1018,-3.1034,-3.1163,-3.118,-3.1192,-3.1088,-3.1089,-3.1091,-3.1163,0,-3.092,-3.0975,-3.0964,-3.1018,-3.1043,-3.1018,-3.1045,-3.1054,-3.1052,-3.1072,-3.1069,-3.1091,-3.1063,-3.1069,-3.1091,-3.1089,-3.1126,-3.1083,-3.1112,-3.1113,-3.1112,-3.1204,-3.1222,-3.129,-3.1172,-3.1173,-3.1174,0,-3.1009,-3.1025,-3.1082,-3.1088,-3.1098,-3.1123,-3.1141,-3.116,-3.1169,-3.1165,-3.1176,-3.1161,-3.1192,-3.1157,-3.1199,-3.117,-3.1181,-3.1181,-3.1184,-3.1187,-3.1149,-3.1211,-3.1311,-3.1322,-3.1188,-3.1187,-3.1186,0,-3.1076,-3.1112,-3.1151,-3.1158,-3.1166,-3.1184,-3.1188,-3.1195,-3.1207,-3.1222,-3.123,-3.1247,-3.1257,-3.1271,-3.126,-3.1236,-3.1304,-3.1268,-3.1303,-3.1303,-3.132,-3.1319,-3.1424,-3.1324,-3.1324,-3.1324,-3.1324,0,-3.1156,-3.1193,-3.1181,-3.1205,-3.1245,-3.1231,-3.127,-3.1271,-3.1277,-3.1301,-3.1279,-3.1301,-3.1286,-3.1306,-3.1298,-3.1335,-3.1339,-3.1337,-3.1335,-3.134,-3.1341,-3.1348,-3.1344,-3.1327,-3.1326,-3.1326,-3.1325,0,-3.1239,-3.1232,-3.1273,-3.1278,-3.1279,-3.1309,-3.1312,-3.1334,-3.133,-3.136,-3.1366,-3.136,-3.1383,-3.1374,-3.1398,-3.1392,-3.1439,-3.143,-3.1437,-3.1435,-3.1471,-3.1468,-3.1586,-3.1601,-3.149,-3.1491,-3.1492,0,-3.1291,-3.1319,-3.1326,-3.1341,-3.1346,-3.137,-3.1383,-3.137,-3.1384,-3.1396,-3.1417,-3.1439,-3.1455,-3.1493,-3.1491,-3.1509,-3.1501,-3.1541,-3.1504,-3.1508,-3.1503,-3.1502,-3.1505,-3.1549,-3.155,-3.1551,-3.1552,0,-3.1385,-3.1381,-3.1401,-3.142,-3.1437,-3.1451,-3.1463,-3.1476,-3.1464,-3.1481,-3.1505,-3.1518,-3.1543,-3.1565,-3.1581,-3.1584,-3.1566,-3.1563,-3.1573,-3.1579,-3.1583,-3.1582,-3.1459,-3.1561,-3.156,-3.156,-3.1559,-3.1559,-3.1455,-3.1479,-3.1488,-3.1511,-3.1519,-3.1531,-3.1552,-3.1551,-3.1572,-3.1592,-3.1582,-3.1611,-3.1618,-3.1639,-3.1644,-3.1665,-3.165,-3.1663,-3.1666,-3.167,-3.1676,-3.1578,-3.1668,-3.1668,-3.1667,-3.1667,-3.1667,0,-3.1549,-3.1554,-3.1575,-3.1594,-3.1612,-3.1594,-3.1606,-3.1623,-3.1648,-3.1657,-3.1674,-3.1702,-3.1723,-3.1722,-3.1741,-3.1758,-3.1751,-3.1764,-3.1763,-3.1764,-3.1688,-3.1679,-3.177,-3.177,-3.177,-3.177,-3.177,-3.177,-3.16,-3.164,-3.1637,-3.1679,-3.1683,-3.1712,-3.172,-3.1731,-3.1738,-3.1771,-3.1789,-3.1788,-3.1793,-3.1812,-3.183,-3.1829,-3.1838,-3.1855,-3.1851,-3.178,-3.177,-3.176,-3.1751,-3.1856,-3.1857,-3.1926,-3.1927,-3.1927]}]]